Flag for France Weather past 2 weeks in Auxerre, France

Now
37 °F

Rain. Mostly cloudy.


Feels Like: 27 °F
Forecast: 22 / 36 °F
Wind: 22 mph from South

Location: Troyes Airport

Current Time: Dec 27, 2014 at 1:25:34 AM

Latest Report: Dec 27, 2014 at 1:00 AM


Visibility: 5 mi

Pressure: 29.98 "Hg

Humidity: 93%

Dew point: 36 °F

Location of AuxerreLocation

Historic Weather in Auxerre — Graph

°F

Auxerre temperature yesterday

Maximum temperature yesterday: 37 °F (at 12:00 AM)
Minimum temperature yesterday: 28 °F (at 6:00 AM)
Average temperature yesterday: 34 °F

Past Weeks' High & Low Weather Summary

 TemperatureHumidityPressure
High57 °F (Dec 18, 12:00 PM)100% (Dec 13, 10:00 PM)30.57 "Hg (Dec 13, 10:00 PM)
Low28 °F (Dec 26, 6:00 AM)66% (Dec 13, 6:00 AM)29.68 "Hg (Dec 12, 4:30 PM)
Average45 °F87%30.17 "Hg
* Reported Midnight between Dec 11 and Dec 12 — Midnight between Dec 26 and Dec 27, Auxerre, Weather by CustomWeather, © 2014

Note: Actual official high and low records may vary slightly from our data, if they occured in-between our weather recording intervals... More about our weather records

Advertising

Auxerre weather history for previous 24 hours

 ConditionsComfort  
Time TempWeatherWind HumidityBarometerVisibility
12:00 AM
Dec 27
37 °FLight rain. Mostly cloudy.15 mph93%30.07 "HgN/A
11:30 PM
Dec 26
37 °FLight rain. Mostly cloudy.14 mph93%30.09 "HgN/A
11:00 PM37 °FLight rain. Passing clouds.13 mph93%30.12 "Hg5 mi
10:30 PM37 °FLight rain. Low clouds.10 mph93%30.15 "HgN/A
10:00 PM37 °FMostly cloudy.14 mph93%30.21 "HgN/A
9:30 PM37 °FLow clouds.14 mph93%30.21 "HgN/A
9:00 PM37 °FLow clouds.12 mph93%30.24 "HgN/A
8:30 PM37 °FLow clouds.13 mph93%30.27 "HgN/A
8:00 PM37 °FPassing clouds.10 mph93%30.30 "HgN/A
7:30 PM37 °FPassing clouds.12 mph93%30.30 "HgN/A
7:00 PM37 °FLow clouds.9 mph93%30.33 "Hg4 mi
6:30 PM37 °FLow clouds.7 mph93%30.33 "Hg5 mi
6:00 PM37 °FLow clouds.7 mph93%30.36 "Hg4 mi
5:30 PM36 °FFog.6 mph100%30.36 "Hg3 mi
5:00 PM36 °FLow clouds.9 mph100%30.36 "Hg4 mi
4:30 PM36 °FLow clouds.8 mph100%30.39 "Hg4 mi
4:00 PM37 °FFog.8 mph93%30.39 "Hg3 mi
3:30 PM37 °FFog.6 mph93%30.39 "Hg3 mi
3:00 PM37 °FLow clouds.3 mph93%30.42 "Hg4 mi
2:30 PM36 °FLow clouds.2 mph100%30.42 "Hg4 mi
2:00 PM36 °FFog.3 mph100%30.45 "Hg3 mi
1:30 PM36 °FFog.5 mph93%30.45 "Hg1 mi
1:00 PM34 °FFog.6 mph100%30.45 "Hg1 mi
12:30 PM34 °FFog.5 mph100%30.48 "Hg1 mi
12:00 PM32 °FFog.6 mph100%30.48 "Hg0 mi
11:30 AM32 °FIce fog.5 mph100%30.48 "Hg0 mi
11:00 AM32 °FIce fog.3 mph93%30.51 "Hg0 mi
10:30 AM30 °FIce fog.5 mph100%30.51 "Hg0 mi
10:00 AM30 °FIce fog.6 mph100%30.51 "Hg0 mi
9:30 AM30 °FIce fog.3 mph100%30.51 "Hg0 mi
9:00 AM30 °FIce fog.3 mph93%30.48 "Hg0 mi
8:30 AM28 °FIce fog.3 mph100%30.48 "Hg0 mi
8:00 AM28 °FIce fog.3 mph100%30.48 "Hg3 mi
7:30 AM28 °FIce fog.2 mph100%30.48 "Hg0 mi
7:00 AM28 °FIce fog.2 mph100%30.48 "Hg1 mi
6:30 AM30 °FIce fog.No wind93%30.48 "Hg0 mi
6:00 AM28 °FIce fog.No wind100%30.48 "Hg0 mi
5:30 AM30 °FIce fog.No wind93%30.48 "Hg0 mi
5:00 AM32 °FIce fog.No wind93%30.48 "Hg2 mi
4:30 AM34 °FClear.5 mph93%30.48 "Hg6 mi
3:30 AM34 °FClear.3 mph93%30.48 "Hg6 mi
3:00 AM34 °FFog.2 mph93%30.48 "Hg2 mi
2:30 AM34 °FClear.No wind93%30.48 "Hg4 mi
2:00 AM34 °FClear.6 mph100%30.48 "Hg6 mi
1:30 AM36 °FClear.3 mph93%30.48 "Hg5 mi
1:00 AM36 °FClear.2 mph93%30.48 "HgN/A
Weather by CustomWeather, © 2014

See weather overviewHow to use our weather pages